Location: Miss�
(46.9484°N, 0.1922°W)
Time: 22:03:45
(UTC+00:00)

Cosmos 2278 Rocket - Pass Details

Date: 02 March 2021
Orbit: 841 x 845 km, 71.0° (Epoch: 14 April)

Event Time Altitude Azimuth Distance (km) Brightness Sun altitude
Rises 20:37:51 0° 334° (NNW) 3,415 6.0 -29.2°
Reaches altitude 10° 20:40:20 10° 337° (NNW) 2,476 5.2 -29.6°
Enters shadow 20:44:35 49° 1° (N) 1,090 2.8 -30.3°
